Alturas, CA

4:19 PM PST on January 19, 2017 (GMT -0800)
Alturas Municipal

Weather History for KAAT - April, 2014

Change the Weather History Date:

Tuesday, April 15, 2014

  Actual Average Record
Temperature  
Mean Temperature 48 °F 43 °F  
Max Temperature 66 °F 57 °F 82 °F (1985)
Min Temperature 30 °F 28 °F 13 °F (1982)
Degree Days  
Heating Degree Days 17 22  
Month to date heating degree days 272 354  
Since 1 July heating degree days 5781 6046  
Cooling Degree Days 0 0  
Month to date cooling degree days 0 0  
Year to date cooling degree days 0 0  
Moisture  
Dew Point 24 °F    
Average Humidity 44    
Maximum Humidity 75    
Minimum Humidity 13    
Precipitation  
Precipitation 0.00 in 0.06 in 0.43 in (1963)
Month to date precipitation 0.10 0.73  
Year to date precipitation 3.86 5.35  
Sea Level Pressure  
Sea Level Pressure 30.00 in    
Wind  
Wind Speed 8 mph (NW)    
Max Wind Speed 20 mph    
Max Gust Speed 26 mph    
Visibility 10 miles    
Events      
T = Trace of Precipitation, MM = Missing Value Source: NWS Daily Summary

Daily Weather History Graph

Daily Weather History Graph

Search for Another Location

Airport or City:

Trip Planner

Search our weather history database for the weather conditions in past years. The results will help you decide how hot, cold, wet, or windy it might be!

Date:

Astronomy

Apr. 15, 2014 Rise Set
Actual Time 6:22 AM PDT 7:42 PM PDT
Civil Twilight 5:53 AM PDT 8:11 PM PDT
Nautical Twilight 5:19 AM PDT 8:46 PM PDT
Astronomical Twilight 4:42 AM PDT 9:22 PM PDT
Moon 8:29 PM PDT (4/15) 6:33 AM PDT (4/15)
Length of Visible Light 14h 18m
Length of Day
13h 20m
Full, 100% of the Moon is Illuminated
Apr 15
Full
Apr 22
Last Quarter
Apr 28
New
May 6
First Quarter
May 14
Full

Hourly Weather History & Observations

Time (PDT) Temp. Windchill Dew Point Humidity Pressure Visibility Wind Dir Wind Speed Gust Speed Precip Events Conditions
12:55 AM 46.0 °F - 26.1 °F 46% 30.04 in 10.0 mi Calm Calm - N/A   Clear
1:55 AM 45.0 °F 40.6 °F 27.0 °F 49% 30.01 in 10.0 mi ESE 8.1 mph - N/A   Clear
2:55 AM 39.9 °F 35.1 °F 27.0 °F 60% 30.01 in 10.0 mi SSE 6.9 mph - N/A   Clear
3:55 AM 37.9 °F - 27.0 °F 65% 30.02 in 10.0 mi Calm Calm - N/A   Clear
4:55 AM 34.0 °F - 25.0 °F 70% 30.03 in 10.0 mi Calm Calm - N/A   Clear
5:55 AM 32.0 °F - 25.0 °F 75% 30.03 in 10.0 mi Calm Calm - N/A   Clear
6:55 AM 34.0 °F - 26.1 °F 73% 30.03 in 8.0 mi Calm Calm - N/A   Clear
7:55 AM 43.0 °F - 28.0 °F 56% 30.04 in 10.0 mi Calm Calm - N/A   Clear
8:55 AM 48.9 °F - 32.0 °F 52% 30.04 in 10.0 mi Calm Calm - N/A   Clear
9:55 AM 55.9 °F - 33.1 °F 42% 30.04 in 10.0 mi WNW 11.5 mph - N/A   Clear
10:55 AM 57.0 °F - 28.9 °F 34% 30.05 in 10.0 mi NW 15.0 mph 19.6 mph N/A   Clear
11:55 AM 60.1 °F - 19.9 °F 21% 30.03 in 10.0 mi WNW 12.7 mph 19.6 mph N/A   Clear
12:55 PM 61.0 °F - 27.0 °F 27% 30.02 in 10.0 mi West 15.0 mph 23.0 mph N/A   Clear
1:55 PM 63.0 °F - 23.0 °F 22% 30.01 in 10.0 mi WNW 16.1 mph 26.5 mph N/A   Clear
2:55 PM 64.0 °F - 19.0 °F 18% 30.00 in 10.0 mi WNW 12.7 mph 23.0 mph N/A   Clear
3:55 PM 64.0 °F - 12.0 °F 13% 29.99 in 10.0 mi WNW 15.0 mph 20.7 mph N/A   Clear
4:55 PM 64.0 °F - 16.0 °F 16% 29.97 in 10.0 mi WNW 8.1 mph 19.6 mph N/A   Clear
5:55 PM 63.0 °F - 19.0 °F 18% 29.97 in 10.0 mi NW 9.2 mph - N/A   Clear
6:55 PM 60.1 °F - 19.0 °F 20% 29.96 in 10.0 mi WNW 10.4 mph - N/A   Clear
7:55 PM 57.0 °F - 17.1 °F 21% 29.96 in 10.0 mi NW 10.4 mph - N/A   Clear
8:55 PM 54.0 °F - 25.0 °F 33% 29.96 in 10.0 mi NW 12.7 mph - N/A   Mostly Cloudy
9:55 PM 52.0 °F - 27.0 °F 38% 29.95 in 10.0 mi NNW 12.7 mph 21.9 mph N/A   Clear
10:55 PM 52.0 °F - 28.0 °F 40% 29.95 in 10.0 mi North 5.8 mph - N/A   Overcast
11:55 PM 52.0 °F - 28.0 °F 40% 29.96 in 10.0 mi WNW 4.6 mph - N/A   Overcast